Regional Weather Roundup
Issued by NWS

Home | Current Version | Previous Version | Graphics & Text | Print | Product List | Glossary Off
Versions: 1 2 3 4 5 6 7 8 9 10 11 12 13 14 15 16 17 18 19 20 21 22 23 24 25 26 27 28 29 30 31 32 33 34 35 36 37 38 39 40 41 42 43 44 45 46 47 48 49 50

000
ASUS43 KDMX 241108
RWRIA

WEATHER ROUNDUP FOR IOWA
NATIONAL WEATHER SERVICE DES MOINES IA
600 AM CDT TUE MAY 24 2016

NOTE: "FAIR" INDICATES FEW OR NO CLOUDS BELOW 12,000 FEET WITH NO
SIGNIFICANT WEATHER AND/OR OBSTRUCTIONS TO VISIBILITY.

* - THESE STATIONS ARE NOT NWS STATIONS...THUS NOT UNDER NWS
QUALITY CONTROL.  THEY ALSO DO NOT REPORT WEATHER SUCH
AS PRECIPITATION OR FOG.

IAZ001>003-012>014-020>022-031>034-043>046-241200-
   NORTHWEST IOWA

CITY           SKY/WX    TMP DP  RH WIND       PRES   REMARKS
CARROLL *      CLEAR     61  59  94 S6        29.85S
CHEROKEE *     CLOUDY    59  59 100 CALM      29.84S
DENISON *      CLEAR     61  59  94 CALM      29.83S
LE MARS *      PTCLDY    61  59  94 SE5       29.83F
ORANGE CITY *  CLEAR     61  59  94 S5        29.82F
SHELDON *      CLEAR     61  61 100 S10       29.82F
SIOUX CITY     CLOUDY    59  57  93 E5        29.83S
SPENCER        CLOUDY    60  58  92 S9        29.85R
STORM LAKE *   CLEAR     59  57  94 S8        29.85F
$$

IAZ055>058-069>071-079>083-090>094-241200-
   SOUTHWEST IOWA

CITY           SKY/WX    TMP DP  RH WIND       PRES   REMARKS
ATLANTIC *     CLOUDY    63  61  94 SE3       29.87R
AUDUBON *      CLEAR     61  57  88 CALM      29.87S
CLARINDA *       N/A     64  63  94 MISG      29.90R
COUNCIL BLFS * PTCLDY    61  61 100 SE6       29.85R
CRESTON *      CLOUDY    63  61  94 S13       29.90S
HARLAN  *        N/A    N/A N/A N/A MISG        N/A
LAMONI         CLOUDY    61  58  90 S9        29.89R
RED OAK *      CLOUDY    64  63  94 SE3       29.87R
SHENANDOAH *   CLEAR     64  64 100 SE6G13    29.87S
$$

IAZ047>049-059>061-072>074-084-241200-
   CENTRAL IOWA

CITY           SKY/WX    TMP DP  RH WIND       PRES   REMARKS
AMES           CLOUDY    61  60  97 SE7       29.87S
ANKENY *       FOG       61  61 100 MISG      29.87F VSB 3/4
BOONE *        CLEAR     63  61  94 S6        29.86R
CHARITON *     LGT RAIN  64  61  88 VRB6G12   29.87F
DES MOINES     CLOUDY    64  61  90 S5        29.88S
GRINNELL*      CLOUDY    63  59  88 SE5       29.90F
KNOXVILLE *    CLOUDY    64  59  82 CALM      29.88F
MARSHALLTOWN   CLOUDY    63  62  97 S5        29.87F
NEWTON *       CLOUDY    63  63 100 SE7       29.88F
PELLA *        CLOUDY    64  59  82 CALM      29.90F
PERRY *          N/A     61  61 100 S9        29.86S
$$

IAZ004>006-015-016-023>025-035-036-241200-
   NORTH CENTRAL IOWA

CITY           SKY/WX    TMP DP  RH WIND       PRES   REMARKS
ALGONA *       CLEAR     61  57  88 SW14      29.85S
CLARION *      CLEAR     61  59  94 W5        29.85S
ESTHERVILLE    CLOUDY    59  58  96 SW8       29.85R
FORT DODGE *   CLOUDY    57  54  88 S5        29.87R
MASON CITY     CLOUDY    63  60  90 W8        29.86R
FOREST CITY *  MOCLDY    61  59  94 SW5       29.85F
WEBSTER CITY * MOCLDY    61  61 100 W7        29.85R
IOWA FALLS *     N/A     63  59  88 CALM      29.86F
$$

IAZ007>011-017>019-026>030-037>042-050>054-066-241200-
   NORTHEAST IOWA

CITY           SKY/WX    TMP DP  RH WIND       PRES   REMARKS
CEDAR RAPIDS   CLOUDY    61  60  97 S5        29.92R
CHARLES CITY * MOCLDY    63  63 100 SE6       29.87S
CLINTON *      MOCLDY    61  52  72 S6        29.94R
DECORAH *      MOCLDY    64  57  77 VRB6G13   29.87S
DUBUQUE        CLOUDY    61  51  70 S8        29.93R
MONTICELLO *   PTCLDY    64  54  68 S6        29.92S
OELWEIN *      CLOUDY   N/A N/A N/A MISG        N/A
WATERLOO       CLOUDY    63  61  93 S7        29.87S
$$

IAZ064-065-067-068-078-241200-
   EAST CENTRAL IOWA

CITY           SKY/WX    TMP DP  RH WIND       PRES   REMARKS
DAVENPORT      MOCLDY    64  51  62 SW7       29.94R
IOWA CITY      LGT RAIN  64  58  80 CALM      29.94R
MT. PLEASANT * MOCLDY    64  57  77 S3        29.95R
MUSCATINE *    CLOUDY    64  54  68 SE5       29.94R
QUAD CITIES    MOCLDY    65  52  62 CALM      29.94R
$$

IAZ062-063-075>077-085>089-095>099-241200-
   SOUTHEAST IOWA

CITY           SKY/WX    TMP DP  RH WIND       PRES   REMARKS
BURLINGTON     PTCLDY    62  55  77 S6        29.95R
FAIRFIELD *      N/A    N/A N/A N/A MISG        N/A
FORT MADISON * PTCLDY    64  57  77 S5        29.95R
KEOKUK *       CLEAR     63  55  77 CALM      29.94R
OSKALOOSA *      N/A     63  59  88 S6        29.91F
OTTUMWA        CLOUDY    63  57  81 S5        29.92R
WASHINGTON *   CLOUDY    63  57  82 SE5       29.95R
$$

ABBREVIATIONS USED IN REMARKS
   TC - TEMPERATURES IN CELSIUS
  WCI - WIND CHILL INDEX
   HX - HEAT INDEX
  VSB - VISIBILITY
$$




USA.gov is the U.S. government's official web portal to all federal, state and local government web resources and services.